Hourly Data Report for October 11, 2012

All times are specified in Local Standard Time (LST). Add 1 hour to adjust for Daylight Saving Time where and when it is observed.

IQALUIT CLIMATE
NUNAVUT

63°44'50.000" N
68°32'40.000" W
33.50 m
2402592
71321
XFB

Download Data

Hourly Data (October 2012)
Hourly Data Report for October 11, 2012
Temp Definition
°C
Dew Point Temp Definition
°C
Rel Hum Definition
%
Wind Dir Definition
10's deg

Wind Spd Definition
km/h
Visibility Definition
km
Stn Press Definition
kPa
Hmdx Definition


Wind Chill Definition


Weather Definition


TIME
00:00 0.4 -4.1 72 12 33   100.18     LegendNANA
01:00 0.5 -3.5 75 12 35   100.04     LegendNANA
02:00 0.2 -2.4 83 12 39   99.91     LegendNANA
03:00 0.1 -1.6 88 11 35   99.75     LegendNANA
04:00 0.2 -0.7 94 11 37   99.64     LegendNANA
05:00 0.2 -0.3 96 11 39   99.51     LegendNANA
06:00 0.6 0.4 99 12 41   99.41     LegendNANA
07:00 0.7 0.7 100 12 37   99.32     LegendNANA
08:00 0.9 0.9 100 13 33   99.25     LegendNANA
09:00 1.0 1.0 100 13 33   99.21     LegendNANA
10:00 1.4 1.4 100 13 32   99.13     LegendNANA
11:00 1.6 1.6 100 13 32   99.07     LegendNANA
12:00 2.1 1.8 98 13 26   99.00     LegendNANA
13:00 2.1 1.9 99 13 28   98.94     LegendNANA
14:00 2.9 2.3 96 12 24   98.89     LegendNANA
15:00 2.8 2.3 97 13 28   98.86     LegendNANA
16:00 2.5 2.2 98 13 24   98.82     LegendNANA
17:00 2.9 2.4 97 13 26   98.76     LegendNANA
18:00 2.8 2.2 96 12 20   98.73     LegendNANA
19:00 2.9 2.1 94 12 26   98.71     LegendNANA
20:00 2.5 1.9 96 12 30   98.65     LegendNANA
21:00 1.7 1.6 99 13 22   98.61     LegendNANA
22:00 1.4 1.4 100 13 22   98.54     LegendNANA
23:00 1.1 1.1 100 14 17   98.48     LegendNANA

Notes on Data Quality.

Legend

  • E = Estimated
  • M = Missing
  • NA = Not Available
  • ‡ = Partner data that is not subject to review by the National Climate Archives
Date modified: